[[{"header":{"parameterUnit":"m.s-1","parameterCategory":1,"la1":30.2991,"la2":30.254,"lo1":-89.0895,"lo2":-89.0444,"dy":0.0017,"dx":0.0017,"nx":28,"ny":28,"refTime":"2023-08-22T03:00:00:Z","depth":0,"parameterNumber":2,"parameterNumberName":"U-component_of_WINDS"},"data":[0,0,0,0,0,0,0,0,0,0,0,0,0,0,0,0,0,0,0,0,0,0,0,0,0,0,0,0,0,0,0,0,0,0,0,0,0,0,0,0,0,0,0,0,0,0,0,0,0,0,0,0,0,0,0,0,0,0,-5.4821,-5.4821,0,-5.4813,-5.4813,-5.4813,-5.4709,-5.4706,-5.4703,-5.4701,-5.4692,-5.4695,-5.4697,0,0,0,0,0,0,0,0,0,0,0,0,0,-5.4746,-5.4748,-5.4821,-5.4821,-5.4821,-5.4813,-5.4813,-5.4813,-5.4709,-5.4706,-5.4703,-5.47,-5.4692,-5.4694,-5.4697,0,0,0,0,0,0,0,0,0,0,0,0,0,-5.4763,-5.4749,-5.4821,-5.4768,-5.4763,-5.4813,-5.4813,-5.4813,-5.471,-5.4706,-5.4702,-5.4698,-5.4691,-5.4694,-5.4697,-5.4797,0,0,-5.4708,-5.4709,0,0,0,0,0,0,0,0,-5.4762,-5.4766,-5.4776,-5.4772,-5.4766,-5.4758,-5.4783,-5.4808,-5.4711,-5.473,-5.4701,-5.4696,-5.4717,-5.4718,-5.4725,-5.4797,-5.4796,-5.4708,-5.471,-5.4711,-5.4712,0,0,0,0,0,0,0,-5.4761,-5.4765,-5.4818,-5.4776,-5.477,-5.4745,-5.4743,-5.4788,-5.4746,-5.4728,-5.472,-5.4721,-5.4714,-5.4723,-5.4724,-5.4796,-5.4708,-5.4711,-5.4713,-5.4714,-5.495,-5.4954,0,0,0,0,0,0,-5.4767,-5.4765,-5.4818,-5.4817,-5.4754,-5.4749,-5.4747,-5.4764,-5.4745,-5.4738,-5.4724,-5.4716,-5.4719,-5.4721,-5.4724,-5.4838,-5.4711,-5.4715,-5.4716,-5.4945,-5.495,-5.4955,0,0,0,0,0,0,-5.4766,-5.4773,-5.4818,-5.4789,-5.4793,-5.4755,-5.4775,-5.4766,-5.4775,-5.4742,-5.4734,-5.4741,-5.4716,-5.4719,-5.478,-5.4837,-5.4716,-5.4719,-5.494,-5.4947,-5.4953,-5.5069,0,0,0,0,0,0,-5.4764,-5.4773,-5.481,-5.4791,-5.4795,-5.4874,-5.4779,-5.4769,-5.4781,-5.477,-5.4755,-5.4749,-5.4713,-5.4775,-5.4783,-5.4839,-5.4722,-5.4935,-5.4943,-5.4951,-5.506,-5.5079,-5.5095,0,0,0,0,0,-5.4762,-5.4843,-5.4812,-5.4819,-5.4841,-5.4878,-5.488,-5.4836,-5.4786,-5.4823,-5.4802,-5.475,-5.483,-5.4782,-5.479,-5.4848,-5.4931,-5.4941,-5.495,-5.5052,-5.5075,-5.5095,0,0,0,0,0,0,-5.4869,-5.4839,-5.4805,-5.4882,-5.4884,-5.486,-5.4905,-5.4862,-5.4877,-5.4866,-5.4812,-5.481,-5.4879,-5.487,-5.4817,-5.4944,-5.4871,-5.4883,-5.4946,-5.4968,-5.4985,-5.4984,-5.4724,0,0,0,0,0,-5.4902,-5.4935,-5.4907,-5.4978,-5.498,-5.4944,-5.4958,-5.4925,-5.4923,-5.4923,-5.4907,-5.4908,-5.4933,-5.495,-5.4972,-5.506,-5.5055,-5.5104,-5.5121,-5.5136,-5.5145,-5.5191,-5.5212,-5.4986,-5.4986,-5.4986,0,0,-5.497,-5.4958,-5.4981,-5.4999,-5.4996,-5.5031,-5.4944,-5.4985,-5.501,-5.4929,-5.4984,-5.4974,-5.4971,-5.5046,-5.5078,-5.504,-5.5207,-5.5148,-5.516,-5.5161,-5.5203,-5.5224,-5.5243,-5.4993,-5.4992,-5.4991,0,0,-5.511,-5.5105,-5.5163,-5.5162,-5.5159,-5.5134,-5.5149,-5.5132,-5.5122,-5.5178,-5.5118,-5.5148,-5.5193,-5.5193,-5.5199,-5.5343,-5.5295,-5.5352,-5.5442,-5.5487,-5.5504,-5.552,-5.5569,-5.5588,-5.5363,-5.5363,-5.5363,0,-5.5194,-5.5244,-5.5198,-5.5243,-5.5253,-5.5183,-5.5241,-5.5243,-5.5247,-5.5255,-5.5214,-5.527,-5.5263,-5.5336,-5.5372,-5.538,-5.5394,-5.5352,-5.5506,-5.552,-5.5534,-5.5581,-5.56,-5.537,-5.5369,-5.5368,-5.5368,0,-5.5347,-5.5383,-5.5431,-5.5437,-5.5452,-5.5504,-5.5466,-5.5488,-5.5455,-5.5434,-5.5492,-5.5483,-5.5501,-5.5517,-5.5484,-5.5586,-5.5563,-5.5515,-5.544,-5.5563,-5.5606,-5.5624,-5.538,-5.5377,-5.5375,-5.5373,0,0,-5.555,-5.5533,-5.5551,-5.5553,-5.5546,-5.5573,-5.5622,-5.5641,-5.5659,-5.5666,-5.5705,-5.5746,-5.5702,-5.5709,-5.5677,-5.5717,-5.583,-5.5663,-5.5662,-5.5693,-5.5941,-5.5975,-5.5996,-5.58,-5.5803,-5.5806,-5.594,0,-5.5684,-5.5766,-5.5728,-5.5814,-5.5847,-5.5783,-5.5826,-5.5826,-5.581,-5.5835,-5.5817,-5.5846,-5.5786,-5.579,-5.5827,-5.5809,-5.5879,-5.5799,-5.5834,-5.5836,-5.5834,-5.6019,-5.6055,-5.6182,-5.5957,-5.596,-5.5962,0,-5.585,-5.5864,-5.5954,-5.5941,-5.5954,-5.5993,-5.6007,-5.6033,-5.6033,-5.6018,-5.6028,-5.5987,-5.6034,-5.5963,-5.6028,-5.5974,-5.5987,-5.5981,-5.5985,-5.5984,-5.5904,-5.6021,-5.6222,-5.624,-5.5988,-5.5986,-5.5984,0,-5.5987,-5.6029,-5.6088,-5.6092,-5.608,-5.6109,-5.6105,-5.6101,-5.6115,-5.6128,-5.6136,-5.6156,-5.6165,-5.6181,-5.6146,-5.6098,-5.6215,-5.6142,-5.6203,-5.6204,-5.6228,-5.6226,-5.6431,-5.6242,-5.6242,-5.6241,-5.6241,0,-5.6139,-5.6196,-5.6149,-5.6185,-5.6247,-5.6204,-5.6267,-5.6256,-5.6254,-5.6287,-5.6234,-5.6266,-5.6219,-5.6247,-5.6221,-5.6278,-5.6283,-5.6272,-5.6264,-5.6275,-5.6276,-5.6281,-5.627,-5.6246,-5.6245,-5.6244,-5.6243,0,-5.6301,-5.6272,-5.6332,-5.6316,-5.6314,-5.636,-5.6347,-5.638,-5.6361,-5.6403,-5.6411,-5.6381,-5.6411,-5.6379,-5.6407,-5.6389,-5.6466,-5.6446,-5.6465,-5.6459,-5.6522,-5.6515,-5.6734,-5.676,-5.6556,-5.6558,-5.656,0,-5.6398,-5.644,-5.643,-5.6448,-5.6448,-5.6478,-5.6493,-5.6453,-5.647,-5.6474,-5.6507,-5.6533,-5.655,-5.6602,-5.6583,-5.6604,-5.6583,-5.6658,-5.6585,-5.6595,-5.6581,-5.6578,-5.6581,-5.6672,-5.6674,-5.6676,-5.6678,0,-5.6572,-5.6557,-5.6579,-5.6598,-5.6617,-5.663,-5.6638,-5.6657,-5.6615,-5.6638,-5.6668,-5.6682,-5.6711,-5.6737,-5.6753,-5.6749,-5.6707,-5.6702,-5.6716,-5.6727,-5.6736,-5.673,-5.6503,-5.6696,-5.6694,-5.6692,-5.6692,-5.6691,-5.6703,-5.6738,-5.6736,-5.6764,-5.6766,-5.6776,-5.6806,-5.6792,-5.6817,-5.6837,-5.6813,-5.685,-5.685,-5.6867,-5.6869,-5.6898,-5.6865,-5.6888,-5.6893,-5.6898,-5.6907,-5.6734,-5.6901,-5.69,-5.69,-5.6899,-5.6899,0,-5.6873,-5.687,-5.6896,-5.691,-5.6932,-5.6892,-5.69,-5.692,-5.6954,-5.6958,-5.6978,-5.7013,-5.7039,-5.7023,-5.7045,-5.7071,-5.7052,-5.7078,-5.7074,-5.7074,-5.6935,-5.6919,-5.7093,-5.7093,-5.7093,-5.7093,-5.7093,-5.7092,-5.6964,-5.702,-5.7005,-5.7063,-5.7059,-5.7095,-5.7103,-5.7112,-5.7115,-5.7157,-5.7178,-5.7168,-5.7164,-5.7186,-5.7208,-5.7202,-5.7212,-5.7245,-5.7232,-5.7102,-5.7083,-5.7065,-5.7049,-5.7248,-5.7248,-5.7368,-5.7369,-5.737]},{"header":{"parameterUnit":"m.s-1","parameterCategory":1,"la1":30.2991,"la2":30.254,"lo1":-89.0895,"lo2":-89.0444,"dy":0.0017,"dx":0.0017,"nx":28,"ny":28,"refTime":"2023-08-22T03:00:00:Z","depth":0,"parameterNumber":3,"parameterNumberName":"V-component_of_WINDS"},"data":[0,0,0,0,0,0,0,0,0,0,0,0,0,0,0,0,0,0,0,0,0,0,0,0,0,0,0,0,0,0,0,0,0,0,0,0,0,0,0,0,0,0,0,0,0,0,0,0,0,0,0,0,0,0,0,0,0,0,2.6658,2.6658,0,2.6702,2.6702,2.6703,2.6741,2.6742,2.6742,2.6743,2.6784,2.6785,2.6785,0,0,0,0,0,0,0,0,0,0,0,0,0,2.6605,2.6606,2.6658,2.6658,2.6659,2.6702,2.6702,2.6703,2.6741,2.6742,2.6742,2.6743,2.6784,2.6785,2.6785,0,0,0,0,0,0,0,0,0,0,0,0,0,2.6636,2.6606,2.6658,2.6683,2.6686,2.6701,2.6702,2.6703,2.6741,2.6742,2.6743,2.6743,2.6784,2.6784,2.6785,2.6778,0,0,2.6789,2.6789,0,0,0,0,0,0,0,0,2.6634,2.6638,2.6679,2.6681,2.6685,2.6717,2.6699,2.6728,2.6741,2.672,2.6743,2.6743,2.6761,2.6764,2.677,2.678,2.6782,2.6789,2.6789,2.679,2.679,0,0,0,0,0,0,0,2.6632,2.6636,2.6675,2.6679,2.6683,2.6692,2.6697,2.6705,2.6736,2.6722,2.6725,2.673,2.6762,2.6769,2.6772,2.6782,2.6789,2.679,2.679,2.6791,2.6789,2.6789,0,0,0,0,0,0,2.6626,2.6634,2.6674,2.6676,2.6661,2.6692,2.6698,2.6706,2.6736,2.6741,2.6729,2.6731,2.6767,2.677,2.6773,2.6767,2.679,2.6791,2.6791,2.679,2.6789,2.6788,0,0,0,0,0,0,2.6625,2.663,2.6672,2.6656,2.6662,2.6693,2.6701,2.6706,2.6713,2.6741,2.6747,2.673,2.6768,2.6772,2.6777,2.6769,2.6791,2.6792,2.6791,2.679,2.6789,2.6754,0,0,0,0,0,0,2.6624,2.6629,2.6627,2.6656,2.6663,2.6675,2.67,2.6707,2.6715,2.6719,2.6744,2.6749,2.6769,2.6775,2.6778,2.6771,2.6793,2.6791,2.679,2.6789,2.6756,2.6752,2.6748,0,0,0,0,0,2.6622,2.6614,2.6626,2.6631,2.6661,2.6675,2.6679,2.6703,2.6714,2.6712,2.6731,2.6748,2.677,2.6776,2.6779,2.6772,2.6792,2.679,2.6789,2.6758,2.6753,2.6749,0,0,0,0,0,0,2.6581,2.6618,2.6632,2.6634,2.6651,2.6681,2.6679,2.6696,2.6709,2.6712,2.674,2.6746,2.6748,2.676,2.6766,2.6767,2.6783,2.6782,2.6758,2.6754,2.675,2.6746,2.6794,0,0,0,0,0,2.6572,2.6582,2.6613,2.6612,2.662,2.6648,2.6655,2.6672,2.669,2.6697,2.6716,2.6733,2.6743,2.6749,2.6761,2.6759,2.6765,2.6755,2.6752,2.6749,2.6747,2.6748,2.6744,2.6784,2.6784,2.6784,0,0,2.6554,2.6576,2.6579,2.6604,2.662,2.6628,2.6654,2.6661,2.6667,2.6698,2.6705,2.6719,2.6739,2.6741,2.6743,2.6752,2.6738,2.6747,2.6744,2.6744,2.6746,2.6742,2.6739,2.6783,2.6783,2.6783,0,0,2.6526,2.6543,2.6544,2.656,2.6583,2.6603,2.6603,2.6631,2.6643,2.665,2.6674,2.6682,2.6699,2.6713,2.6722,2.6701,2.6718,2.6704,2.6684,2.6684,2.6681,2.6679,2.6671,2.6668,2.6703,2.6703,2.6703,0,2.6499,2.6514,2.6542,2.6549,2.6559,2.659,2.6591,2.6605,2.663,2.6636,2.6646,2.667,2.6686,2.6692,2.6687,2.6693,2.6694,2.6701,2.668,2.6677,2.6675,2.6669,2.6666,2.6701,2.6701,2.6701,2.6702,0,2.6481,2.6491,2.6489,2.6515,2.6525,2.6529,2.6557,2.6564,2.6581,2.6599,2.6607,2.6627,2.6644,2.6647,2.6663,2.6655,2.666,2.6675,2.6692,2.6669,2.6663,2.6661,2.6698,2.6699,2.67,2.67,0,0,2.6425,2.6469,2.6468,2.6481,2.651,2.6518,2.6524,2.6542,2.6547,2.6564,2.6569,2.6585,2.6599,2.6609,2.6628,2.6628,2.6611,2.6643,2.6644,2.6636,2.6604,2.6592,2.6589,2.6623,2.6622,2.6622,2.6602,0,2.6401,2.6414,2.6441,2.6445,2.6455,2.6485,2.649,2.6509,2.6526,2.6537,2.6556,2.6566,2.6584,2.6591,2.6593,2.6612,2.6604,2.6614,2.6627,2.6627,2.662,2.6586,2.6573,2.6553,2.66,2.66,2.6599,0,2.6374,2.6391,2.6397,2.6428,2.6433,2.6437,2.6456,2.6466,2.6488,2.6501,2.6514,2.6534,2.6542,2.6558,2.6569,2.6575,2.6582,2.6592,2.6592,2.6593,2.6611,2.6585,2.6548,2.6544,2.6596,2.6596,2.6597,0,2.6332,2.6357,2.6364,2.6374,2.6411,2.6413,2.6428,2.6451,2.646,2.6477,2.6484,2.65,2.6509,2.6522,2.6546,2.6556,2.6554,2.6572,2.6564,2.6563,2.6561,2.656,2.6523,2.6567,2.6567,2.6567,2.6567,0,2.6302,2.6304,2.6347,2.6351,2.6354,2.6385,2.6388,2.6406,2.6426,2.6434,2.6461,2.6468,2.6501,2.6511,2.653,2.6536,2.654,2.655,2.6554,2.6547,2.6545,2.6551,2.6552,2.6566,2.6566,2.6566,2.6566,0,2.6255,2.6284,2.6294,2.6329,2.6337,2.6338,2.6368,2.6373,2.6393,2.6403,2.6407,2.6438,2.6452,2.6478,2.6498,2.6512,2.6513,2.6522,2.6506,2.6509,2.6499,2.6499,2.6462,2.6459,2.6505,2.6505,2.6505,0,2.6233,2.6236,2.6272,2.628,2.6295,2.6307,2.6318,2.6349,2.6359,2.6386,2.6387,2.6404,2.6418,2.6439,2.6462,2.6478,2.6488,2.6474,2.649,2.6483,2.6487,2.6486,2.6487,2.647,2.6469,2.6469,2.6468,0,2.6191,2.6206,2.6221,2.6242,2.6255,2.6272,2.629,2.6295,2.6331,2.634,2.6356,2.6367,2.639,2.6405,2.6425,2.644,2.6459,2.6463,2.6462,2.6453,2.6444,2.6449,2.6495,2.6464,2.6464,2.6464,2.6465,2.6465,2.6156,2.6161,2.6187,2.6204,2.6222,2.6239,2.6246,2.6268,2.6282,2.6304,2.6322,2.6336,2.6359,2.6388,2.6402,2.6413,2.6422,2.642,2.642,2.6419,2.6415,2.6443,2.6416,2.6417,2.6417,2.6417,2.6417,0,2.6115,2.6135,2.615,2.6176,2.6189,2.621,2.6232,2.6241,2.6253,2.6274,2.6289,2.6307,2.6323,2.6349,2.6367,2.6371,2.638,2.6374,2.6374,2.6377,2.6406,2.6405,2.6366,2.6366,2.6366,2.6367,2.6367,2.6367,2.6096,2.6105,2.6123,2.6141,2.6161,2.6176,2.6187,2.6203,2.622,2.624,2.6254,2.6272,2.6295,2.6315,2.6331,2.6338,2.6343,2.6334,2.6344,2.637,2.6375,2.6379,2.6379,2.6335,2.6335,2.6314,2.6314,2.6313]}]]